Weather in Albany

United States     42°41′04″N   73°47′56″W
temp.,
°C
wind,
m/s
gust,
m/s
humid.,
%
clouds,
%
prec.,
mm/h
press.,
hPa
HPBL,
m
17 may, mon
mon1723:00+11nw1295100 3.1 102587
02:00+9ene11965 3.1 102413
05:00+8ssw11975 0.0 102515
08:00+12wsw01854 0.0 1026284
11:00+20wnw11505 0.0 1025865
14:00+24ssw123635 0.0 10232334
17:00+20s455177 0.3 1024878
20:00+16s22705 0.3 102433
18 may, tue
tue1823:00+13s128041 0.0 102538
02:00+12se1280100 0.0 102460
05:00+11s1285100 0.0 102557
08:00+13sw1387100 0.2 1026127
11:00+21wnw465041 0.1 10251660
14:00+23wnw574297 0.1 10222422
17:00+23wnw584491 0.0 10221851
20:00+19wnw410636 0.0 1023475
19 may, wed
wed1923:00+15nw24822 0.1 1025110
02:00+13nnw01895 0.1 102515
05:00+12ssw11935 0.0 102612
08:00+16w13680 0.0 1027361
11:00+23nw24450 0.0 10261090
14:00+28nw14379 0.0 10252055
17:00+27nw233822 0.0 10242097
20:00+22wnw27675 0.0 1025220
20 may, thu
thu2023:00+18sse01780 0.0 102632
02:00+16nw11860 0.0 102716
05:00+15n01910 0.0 102811
08:00+19nnw116826 0.0 1029262
11:00+27wsw1242100 0.0 1028865
14:00+28ssw1338100 0.0 10272042
17:00+27ssw1246100 0.0 10261362
20:00+22wsw1271100 0.2 102655
21 may, fri
fri2123:00+17s3790100 0.9 1028216
02:00+15sse3790100 1.1 1028219
05:00+14sse2490100 0.0 1028134
08:00+14sse2698100 1.7 1029193
11:00+14s2799100 6.8 1028267
14:00+15sse2799100 16.7 1027300
17:00+17sse3697100 1.2 1025341
20:00+17s3899100 3.0 1024342